Tracking 25710 objects as of 6-Jul-2022
HD Live streaming from Space Station
objects crossing your sky now

SS 1

Track SS 1 now!
10-day predictions
SS 1 is classified as:


NORAD ID: 10529
Int'l Code: 1977-112D
Perigee: 461.1 km
Apogee: 1,457.0 km
Inclination: 63.3 °
Period: 104.1 minutes
Semi major axis: 7330 km
RCS: Unknown
Launch date: December 8, 1977
Source: United States (US)
Launch site: AIR FORCE WESTERN TEST RANGE (AFWTR)
aabbcc
Your satellite tracking list
Your tracking list is empty




NASA's NSSDC Master Catalog

Two Line Element Set (TLE):
1 10529U 77112D   22187.36873769  .00001312  00000-0  20659-3 0  9996
2 10529  63.3192  53.5402 0679386 140.6865 224.5600 13.83385368152163
Source of the keplerian elements: McCants